Estación de Peldehue

Ultimos registro cada 15 minutos 30
Estación Fecha / Hora Temperatura Humedad Lluvia Velocidad Dirección Radiación Presion
30 Peldehue 07-05-2026 07:15 9 92,3 0 0 229 0,6 941,4
29 Peldehue 07-05-2026 07:00 8,8 92,3 0 0 229 0,6 941,1
28 Peldehue 07-05-2026 06:45 8,7 92,6 0,2 0 229 0,6 940,9
27 Peldehue 07-05-2026 06:30 8,6 93,1 0 0 229 0,6 940,8
26 Peldehue 07-05-2026 06:15 8,5 93,3 0 0 229 0,6 940,9
25 Peldehue 07-05-2026 06:00 8,5 93,5 0 0 229 0,6 940,7
24 Peldehue 07-05-2026 05:45 8,5 93,8 0 0 229 0,6 940,6
23 Peldehue 07-05-2026 05:30 8,4 93,8 0 0 229 0,6 940,6
22 Peldehue 07-05-2026 05:15 8,6 94 0 0 226 0,6 940,3
21 Peldehue 07-05-2026 05:00 8,5 94 0,2 0 227 0,6 940
20 Peldehue 07-05-2026 04:45 8,6 94,2 0 0 234 0,6 939,9
19 Peldehue 07-05-2026 04:30 8,7 94,5 0 0 233 0,6 940,1
18 Peldehue 07-05-2026 04:15 8,6 94,5 0 0 230 0,6 940
17 Peldehue 07-05-2026 04:00 8,6 94,4 0 0 234 0,6 939,9
16 Peldehue 07-05-2026 03:45 8,6 94,4 0,2 0 229 0,6 940,1
15 Peldehue 07-05-2026 03:30 8,7 94,4 0 0 227 0,6 940
14 Peldehue 07-05-2026 03:15 8,6 94,3 0 0 248 0,6 940
13 Peldehue 07-05-2026 03:00 8,4 93,8 0 0 230 0,6 939,9
12 Peldehue 07-05-2026 02:45 8,2 93 0 0 220 0,6 939,8
11 Peldehue 07-05-2026 02:30 8,5 92,4 0,2 0 219 0,6 939,8
10 Peldehue 07-05-2026 02:15 9 92 0 0 213 0,6 939,8
9 Peldehue 07-05-2026 02:00 9,4 91,6 0 0 222 0,6 939,8
8 Peldehue 07-05-2026 01:45 9,6 91,5 0,2 0 222 0,6 939,7
7 Peldehue 07-05-2026 01:30 9,6 91,2 0 0,5 218 0,6 939,4
6 Peldehue 07-05-2026 01:15 9,8 91,2 0 0,5 223 0,6 939,4
5 Peldehue 07-05-2026 01:00 9,8 91,4 0,2 0 222 0,6 939,2
4 Peldehue 07-05-2026 00:45 9,8 91,6 0 0 226 0,6 939,4
3 Peldehue 07-05-2026 00:30 9,8 92,5 0,2 0 219 0,6 939,5
2 Peldehue 07-05-2026 00:15 9,9 92,6 0 0 212 0,6 939,4
1 Peldehue 07-05-2026 00:00 10 92,8 0 0 212 0,6 939,5